Regional Weather Roundup
Issued by NWS Goodland, KS

Home | Current Version | Previous Version | Graphics & Text | Print | Product List | Glossary On
Versions: 1 2 3 4 5 6 7 8 9 10 11 12 13 14 15 16 17 18 19 20 21 22 23 24 25 26 27 28 29 30 31 32 33 34 35 36 37 38 39 40 41 42 43 44 45 46 47 48 49 50
000
ASUS43 KGLD 251459
RWRGLD

GOODLAND FORECAST AREA HOURLY WEATHER ROUNDUP
NATIONAL WEATHER SERVICE GOODLAND KS
900 AM MDT SUN JUN 25 2017

...OFFICIAL OBSERVATIONS...

CITY           SKY/WX    TMP DP  RH WIND       PRES   REMARKS
GOODLAND KS    CLOUDY    53  52  96 NE18      30.36R
HILL CITY KS   CLOUDY    64  56  75 NE10      30.36S
IMPERIAL NEB   CLOUDY    55  44  66 SE13      30.39S
MCCOOK NEB     CLOUDY    57  45  64 SE7       30.39S
AKRON CO       CLOUDY    54  51  90 E12       30.37  FOG
BURLINGTON CO  CLOUDY    56  53  90 NE16      30.38R
LIMON CO       CLOUDY    61  52  72 VRB6      30.37S
$$

...UNOFFICIAL OBSERVATIONS...

CITY           SKY/WX    TMP DP  RH WIND       PRES   REMARKS
LENORA KS        N/A     58  32  37 MISG        N/A
NORTON KS      CLOUDY    55  43  62 NE3       30.38R
SHARON SPRINGS   N/A     69  55  62 SE12        N/A
TRENTON NEB      N/A     55  32  41 SE7         N/A
KIT CARSON CO    N/A     65  54  68 MISG        N/A
YUMA CO        CLOUDY    52  50  93 E13       30.37F
$$




USA.gov is the U.S. government's official web portal to all federal, state and local government web resources and services.